Greenville, MS

6:30 AM CDT on October 20, 2017 (GMT -0500)
Mid Delta Regional

Weather History for KGLH - November, 2011

Change the Weather History Date:

Wednesday, November 23, 2011

  Actual Average Record
Temperature  
Mean Temperature 51 °F 51 °F  
Max Temperature 56 °F 61 °F 83 °F (1921)
Min Temperature 46 °F 40 °F 21 °F (1964)
Degree Days  
Heating Degree Days 14 14  
Month to date heating degree days 182 240  
Since 1 July heating degree days 333 354  
Cooling Degree Days 0 0  
Month to date cooling degree days 34 9  
Year to date cooling degree days 2468 2183  
Moisture  
Dew Point 47 °F    
Average Humidity 85    
Maximum Humidity 93    
Minimum Humidity 77    
Precipitation  
Precipitation 0.00 in 0.18 in 3.20 in (1986)
Month to date precipitation 2.83 3.53  
Year to date precipitation 25.65 45.49  
Sea Level Pressure  
Sea Level Pressure 30.26 in    
Wind  
Wind Speed 8 mph (NNE)    
Max Wind Speed 17 mph    
Max Gust Speed 21 mph    
Visibility 10 miles    
Events      
T = Trace of Precipitation, MM = Missing Value Source: NWS Daily Summary

Daily Weather History Graph

Daily Weather History Graph

Search for Another Location

Airport or City:

Trip Planner

Search our weather history database for the weather conditions in past years. The results will help you decide how hot, cold, wet, or windy it might be!

Date:

Astronomy

Nov. 23, 2011 Rise Set
Actual Time 6:42 AM CST 4:57 PM CST
Civil Twilight 6:15 AM CST 5:24 PM CST
Nautical Twilight 5:45 AM CST 5:54 PM CST
Astronomical Twilight 5:15 AM CST 6:24 PM CST
Moon 4:49 AM CST (11/23) 3:38 PM CST (11/23)
Length of Visible Light 11h 08m
Length of Day
10h 15m
Waning Crescent, 3% of the Moon is Illuminated
Nov 23
Waning Crescent
Nov 25
New
Dec 2
First Quarter
Dec 10
Full
Dec 17
Last Quarter

Hourly Weather History & Observations

Time (CST) Temp. Windchill Dew Point Humidity Pressure Visibility Wind Dir Wind Speed Gust Speed Precip Events Conditions
12:07 AM 53.6 °F - 50.0 °F 88% 30.13 in 10.0 mi North 6.9 mph - N/A   Scattered Clouds
12:53 AM 52.0 °F - 48.9 °F 89% 30.16 in 10.0 mi North 6.9 mph - N/A   Clear
1:53 AM 51.8 °F - 48.2 °F 88% 30.15 in 10.0 mi North 6.9 mph - N/A   Clear
2:53 AM 50.0 °F - 48.2 °F 94% 30.16 in 10.0 mi North 8.1 mph - N/A   Clear
3:53 AM 48.9 °F - 46.0 °F 90% 30.20 in 10.0 mi North 6.9 mph - N/A   Clear
4:53 AM 48.9 °F - 46.0 °F 90% 30.22 in 10.0 mi North 5.8 mph - N/A   Scattered Clouds
5:00 AM 48.2 °F - 46.4 °F 93% 30.20 in 10.0 mi North 6.9 mph - N/A   Mostly Cloudy
5:24 AM 50.0 °F - 46.4 °F 87% 30.20 in 10.0 mi NNE 11.5 mph - N/A   Overcast
5:53 AM 51.8 °F - 46.4 °F 82% 30.21 in 10.0 mi North 9.2 mph - N/A   Overcast
6:53 AM 51.1 °F - 46.9 °F 86% 30.25 in 10.0 mi NNE 11.5 mph - N/A   Overcast
7:53 AM 52.0 °F - 46.9 °F 83% 30.28 in 10.0 mi NE 12.7 mph - N/A   Overcast
8:53 AM 53.1 °F - 46.0 °F 77% 30.30 in 10.0 mi NNE 12.7 mph - N/A   Overcast
9:53 AM 54.0 °F - 46.9 °F 77% 30.30 in 10.0 mi NNE 11.5 mph - N/A   Overcast
10:53 AM 55.0 °F - 48.0 °F 77% 30.30 in 10.0 mi NNE 10.4 mph - N/A   Overcast
11:53 AM 55.0 °F - 48.0 °F 77% 30.30 in 10.0 mi NNE 11.5 mph - N/A   Overcast
12:53 PM 55.9 °F - 48.9 °F 77% 30.28 in 10.0 mi NNE 10.4 mph - N/A   Overcast
1:53 PM 55.9 °F - 48.0 °F 75% 30.27 in 10.0 mi North 9.2 mph - N/A   Overcast
2:53 PM 55.9 °F - 48.0 °F 75% 30.27 in 10.0 mi NNE 6.9 mph - N/A   Overcast
3:53 PM 55.0 °F - 48.0 °F 77% 30.28 in 10.0 mi NNE 6.9 mph - N/A   Overcast
4:53 PM 55.0 °F - 48.0 °F 77% 30.29 in 10.0 mi NNE 5.8 mph - N/A   Overcast
5:53 PM 54.0 °F - 48.9 °F 83% 30.30 in 10.0 mi NNE 8.1 mph - N/A   Overcast
6:53 PM 52.0 °F - 46.9 °F 83% 30.32 in 10.0 mi NNE 6.9 mph - N/A   Scattered Clouds
7:53 PM 50.0 °F - 46.9 °F 89% 30.33 in 10.0 mi NNE 5.8 mph - N/A   Clear
8:53 PM 48.2 °F - 46.4 °F 93% 30.32 in 10.0 mi NNE 4.6 mph - N/A   Clear
9:53 PM 48.0 °F - 46.0 °F 93% 30.35 in 10.0 mi North 4.6 mph - N/A   Partly Cloudy
10:07 PM 46.4 °F 44.3 °F 46.4 °F 100% 30.32 in 10.0 mi North 4.6 mph - N/A   Mostly Cloudy
10:53 PM 48.9 °F - 46.9 °F 93% 30.34 in 10.0 mi NNE 3.5 mph - N/A   Overcast
11:53 PM 50.0 °F - 48.0 °F 93% 30.34 in 10.0 mi NE 3.5 mph - N/A   Overcast